Location: *
(2.5500°S, 65.9667°W)
Time: 11:59:19
(UTC+00:00)

DELTA-4 R/B - Pass Details

Date: 30 May 2022
Orbit: 448 x 34502 km, 13.4° (Epoch: 30 June)

Event Time Altitude Azimuth Distance (km) Brightness Sun altitude
Rises 04:55:20 0° 258° (WSW) 12,119 9.0 -69.1°
Reaches altitude 10° 05:02:37 10° 258° (WSW) 12,997 9.0 -68.3°
Maximum altitude 06:42:00 44° 268° (W) 27,391 10.3 -50.8°
Drops below altitude 10° 14:24:34 10° 71° (ENE) 2,667 6.6 52.5°
Sets 14:26:06 0° 78° (ENE) 3,206 6.7 52.7°
